{"data":{"norad_id":58879,"epoch":"2026-09-20T03:03:06.626592Z","epoch_age_seconds":184697,"freshness":"STALE","line1":"1 58879U 24020D   26263.12716003  .00000732  00000+0  32790-4 0  9990","line2":"2 58879  53.1584 111.3435 0001045  98.4518 261.6603 15.34406851148237","mean_motion":15.34406851,"eccentricity":0.0001045,"inclination_deg":53.1584,"raan_deg":111.3435,"arg_perigee_deg":98.4518,"mean_anomaly_deg":261.6603,"bstar":3.279e-5,"rev_number":14823,"period_min":93.847339058837,"perigee_km":461.96801198987,"apogee_km":463.3977433443,"semimajor_km":6840.8198776671,"source":"CELESTRAK","updated_at":"2026-09-21T09:00:33.992365Z"}}